Temp_Advection
nan nan nan nan nan nan nan nan nan nan nan nan nan nan nan nan nan nan nan nan nan nan nan nan nan nan nan nan nan nan nan nan nan nan nan nan nan nan
nan -0 -0 -0 0 -0 -0 0 0 0 0 0 0 1 0 0 0 0 -0 -0 -0 0 -0 -0 -0 -0 -0 0 0 -0 -0 -0 -0 1 1 0 1 nan
nan 0 0 0 0 -0 -0 -0 0 1 0 1 1 1 0 0 -0 0 -0 -0 -0 0 0 0 -0 -0 -0 -0 -0 -0 -0 0 0 0 0 0 0 nan
nan 0 -0 0 -0 -0 -0 -0 0 1 1 1 0 -0 -0 0 -0 -0 -0 -0 0 0 0 0 0 0 -0 -0 -0 0 -0 -0 0 0 0 0 0 nan
nan 0 0 -0 -0 -0 0 0 0 0 0 0 0 0 -0 0 0 0 0 -0 0 0 -0 -0 0 0 -0 -0 -0 -0 -0 0 0 0 0 0 0 nan
nan -0 0 0 0 0 0 0 0 0 0 0 1 1 -0 -0 0 0 0 -0 0 0 -0 -0 -0 0 -0 -0 -0 -0 0 0 0 0 0 0 0 nan
nan 0 -0 -0 0 0 0 0 0 0 0 0 1 0 -0 -0 -0 0 0 0 -0 0 0 -0 -0 -0 -0 -0 -0 0 0 -0 -0 -0 0 0 0 nan
nan 0 0 0 0 0 -0 0 0 0 0 0 0 0 0 -0 -0 0 0 0 -0 -0 0 0 -0 -0 0 -0 -0 -0 -0 0 -0 0 0 0 0 nan
nan 0 0 -0 0 0 0 0 0 0 0 0 0 0 0 0 0 0 -0 -0 -0 -0 -0 0 0 -0 -0 -0 -0 -0 -0 -0 -0 -0 0 0 0 nan
nan 0 0 0 -0 0 0 0 0 0 0 0 0 0 0 0 0 0 0 -0 -0 -0 -0 -0 -0 -0 -0 -0 -0 -0 -0 -0 -0 -0 0 0 0 nan
nan 0 0 0 0 -0 0 0 -0 0 0 0 0 0 0 0 -0 -0 0 0 0 -0 -0 -0 -0 -0 -0 0 0 0 -0 -0 -0 -0 -0 0 0 nan
nan 0 0 -0 0 0 -0 0 -0 0 0 0 0 -0 -0 0 0 0 0 0 0 0 -0 -0 -0 -0 -0 -0 -0 -0 -0 -0 -0 -0 -0 -0 -0 nan
nan 0 0 0 0 0 0 -0 0 0 0 0 -0 -0 0 0 0 0 0 0 0 0 -0 -0 -0 -0 -0 -0 0 0 -0 -0 -0 -0 -0 -0 -0 nan
nan -0 0 0 0 0 0 0 0 0 0 -0 -0 0 0 -0 0 0 0 0 0 0 0 -0 -0 -0 -0 -1 -0 0 0 0 -0 -0 -0 0 -0 nan
nan 0 0 0 0 0 0 -0 0 0 0 0 0 0 0 0 -0 -0 0 0 0 0 0 -0 -0 0 -0 -0 -1 -0 -0 0 0 -0 -0 -0 -0 nan
nan 0 0 0 0 0 0 -0 0 0 0 0 0 0 0 0 0 -0 -0 -0 0 0 0 0 -0 -0 0 0 -1 -1 0 -0 -0 0 -0 -1 -0 nan
nan 0 0 0 0 0 0 -0 -0 0 0 0 0 0 0 -0 -0 0 0 0 -0 -0 0 0 -0 -0 -0 -0 -0 -0 -0 0 -0 -0 -0 -1 -1 nan
nan -0 0 0 0 0 0 0 0 0 0 0 0 0 0 -0 -0 0 0 -0 -0 -0 0 0 0 -0 -1 -1 -0 -1 0 0 0 0 0 -1 -2 nan
nan 0 0 0 0 0 0 0 0 0 -0 0 0 0 0 0 0 0 0 -0 -0 0 0 1 1 0 -1 -3 -1 1 -1 -0 0 0 0 0 -1 nan
nan 0 0 0 0 0 0 0 0 0 0 0 0 0 0 -0 0 0 0 0 -0 -0 0 1 1 1 1 -0 -3 -2 1 0 -0 -0 0 -0 -0 nan
nan 0 0 1 0 0 0 0 0 0 -0 -0 0 0 0 -0 -0 0 0 0 -0 -0 -0 0 1 1 1 0 -2 -3 -1 1 0 -0 -0 -0 -1 nan
nan 1 1 1 0 0 0 0 0 0 0 -0 0 0 0 0 -0 0 0 0 0 -0 -0 -0 0 1 1 0 -1 -2 -1 -0 0 0 0 1 2 nan
nan nan nan nan nan nan nan nan nan nan nan nan nan nan nan nan nan nan nan nan nan nan nan nan nan nan nan nan nan nan nan nan nan nan nan nan nan nan
Wind_Speed
21 18 18 17 17 19 18 20 20 18 16 15 19 20 16 16 17 18 18 20 21 21 19 18 12 15 18 19 19 19 18 16 12 16 17 19 21 26
16 12 11 13 16 15 16 15 17 16 9 14 19 17 18 20 19 18 21 21 19 16 16 11 10 8 7 5 3 5 6 7 15 21 17 21 30 33
13 13 14 15 15 15 15 17 18 20 20 20 19 21 21 19 18 20 20 16 13 10 11 12 7 3 4 3 4 5 7 9 8 11 13 15 16 19
13 14 15 15 16 15 15 18 20 18 16 16 17 17 17 17 19 18 13 11 10 11 12 9 8 5 6 6 7 7 8 11 13 14 14 16 18 18
14 13 12 13 13 14 15 13 13 12 13 15 17 18 15 15 14 11 8 9 9 9 11 11 10 10 11 12 14 16 16 16 18 19 21 22 22 22
15 15 14 14 13 13 12 12 12 12 12 13 11 11 10 8 9 9 10 11 10 10 11 12 12 11 11 13 15 18 20 22 23 22 23 23 23 24
14 14 13 13 12 11 10 9 9 10 10 10 9 8 8 8 6 8 10 10 11 11 10 12 13 12 14 15 15 15 16 17 19 20 20 20 19 20
10 11 9 8 7 6 7 9 8 7 9 9 10 8 9 9 10 9 10 10 8 10 9 9 13 13 13 15 15 16 16 17 18 19 19 20 19 19
9 8 8 8 6 6 5 5 6 6 8 9 10 10 12 10 11 11 12 11 9 10 10 7 8 7 9 9 8 9 10 10 11 13 15 17 19 20
9 7 8 7 6 5 6 6 6 5 7 9 10 10 11 11 11 10 10 10 9 8 6 4 5 4 6 8 6 6 5 6 7 7 8 10 11 13
6 6 8 6 6 6 7 8 7 6 7 8 9 10 9 10 10 10 10 9 6 6 5 6 5 7 8 6 4 5 4 8 8 9 9 10 11 12
7 7 7 8 7 8 9 8 7 7 6 7 8 7 7 8 8 8 8 7 5 5 4 6 8 9 5 5 2 9 9 9 8 8 10 11 13 14
7 7 7 8 8 8 8 8 7 8 7 6 7 6 7 7 6 6 6 6 7 8 11 10 9 12 10 13 10 12 11 9 10 12 13 13 14 14
8 8 8 8 8 8 7 7 7 7 8 7 7 7 8 8 6 6 7 9 9 11 13 13 15 14 15 18 16 13 12 13 14 14 15 14 15 15
9 9 9 9 8 7 7 7 7 7 8 8 8 9 9 9 9 9 10 10 11 12 13 14 15 16 17 19 19 19 19 16 14 8 12 15 17 19
11 11 11 10 9 9 9 8 8 9 9 10 10 10 11 10 10 11 12 13 12 10 12 12 14 15 16 17 20 21 21 21 20 20 21 19 18 19
13 13 12 11 11 11 10 10 9 10 10 10 11 11 12 13 11 12 12 13 15 14 13 14 15 15 16 18 22 22 22 23 20 19 22 23 21 20
16 15 13 13 12 12 12 12 12 12 11 11 11 12 13 13 13 13 14 15 16 15 16 15 17 19 21 22 22 20 21 23 20 20 21 24 27 23
19 17 16 14 13 13 13 14 14 14 14 14 13 13 14 14 15 15 16 17 18 18 18 18 18 19 22 27 24 20 24 20 22 26 26 25 28 28
21 20 18 16 15 15 15 16 15 15 15 14 14 14 15 15 16 17 17 19 20 20 21 20 21 21 24 26 27 26 22 26 25 28 29 28 28 27
22 22 20 17 17 17 17 17 17 16 16 16 15 16 16 16 18 18 19 20 21 22 23 23 21 20 19 22 28 33 30 26 23 25 26 28 31 30
24 25 22 21 19 18 18 18 18 18 17 17 16 17 17 18 20 20 21 22 22 22 23 23 22 22 23 24 29 30 27 23 20 21 23 26 29 30
33 32 30 27 31 29 20 21 21 17 19 17 17 18 18 22 22 22 23 22 23 23 24 24 23 23 24 25 25 27 28 28 28 29 26 19 23 24
Wind_Direction
276 272 270 267 258 261 261 262 260 238 232 247 255 272 269 282 281 286 292 300 301 301 304 312 288 274 273 275 275 274 277 276 257 241 257 248 223 214
267 262 267 264 255 257 246 255 249 241 241 242 261 262 271 276 279 289 293 300 300 304 311 313 321 306 288 257 256 305 291 267 263 259 239 220 207 210
258 253 252 249 252 258 257 252 255 261 261 251 252 264 274 281 285 289 297 299 300 308 308 313 321 314 320 308 280 249 262 246 195 199 202 221 246 256
255 245 245 247 247 251 251 247 247 250 251 253 264 272 272 274 282 288 294 299 297 291 295 305 301 275 264 254 239 232 243 246 246 258 275 277 278 278
259 257 251 250 251 251 253 253 250 250 251 255 263 270 271 270 274 273 280 285 286 284 284 282 286 275 258 258 258 262 265 261 261 268 275 274 275 275
258 258 253 254 256 256 252 250 251 250 251 253 258 264 274 265 262 262 274 275 279 285 286 285 281 277 271 265 261 260 261 264 266 265 261 261 264 265
250 254 252 251 252 252 248 248 253 257 256 254 254 254 272 278 270 272 272 275 280 277 283 288 286 284 283 276 275 273 271 270 273 276 276 274 270 268
236 238 242 232 235 232 238 241 252 260 266 256 258 266 268 279 287 283 277 274 276 288 289 288 286 284 280 280 285 286 279 277 275 274 274 276 277 276
215 214 226 243 249 254 255 253 259 266 263 260 257 262 267 277 280 282 284 287 290 286 296 301 285 286 287 294 302 295 294 291 287 282 277 274 273 273
201 218 243 252 263 266 271 275 271 271 265 265 266 269 274 279 281 284 283 284 289 293 306 312 297 301 299 297 296 296 306 313 310 302 292 283 278 277
219 232 251 260 277 281 276 274 276 267 271 272 270 272 277 281 281 281 282 282 279 285 306 309 309 321 311 295 281 279 278 315 302 298 294 288 287 286
232 244 261 274 280 280 277 276 275 282 280 275 273 277 279 276 274 274 277 280 283 282 289 302 319 327 326 311 312 304 299 300 299 297 301 293 289 285
242 252 259 277 282 281 276 279 285 283 283 274 276 284 280 273 267 268 270 276 282 280 289 298 300 306 304 297 304 299 300 302 302 296 292 290 288 287
258 268 278 280 286 287 279 279 281 278 278 277 284 282 278 280 276 270 267 273 279 281 285 288 291 300 299 299 304 298 302 303 301 298 295 292 289 284
266 273 279 286 293 287 285 291 284 279 278 284 282 279 281 278 278 275 276 281 283 284 284 287 290 289 288 292 298 301 307 308 304 301 293 289 284 285
271 274 281 290 289 283 284 285 282 275 278 280 278 279 282 281 278 282 284 284 284 279 281 282 283 284 288 291 291 298 304 302 301 302 297 290 284 281
264 269 276 284 284 284 285 286 283 279 281 278 276 278 278 280 284 280 282 283 287 292 290 292 293 291 291 290 290 295 298 297 301 300 295 294 292 292
265 270 275 279 281 279 284 289 289 289 286 280 279 278 278 281 285 286 287 288 289 292 293 296 295 293 295 291 292 296 293 298 298 293 294 297 298 297
264 269 272 277 281 282 288 290 291 289 284 283 282 280 280 282 283 285 285 286 289 292 293 291 288 286 286 286 295 293 294 296 298 297 295 291 291 294
261 267 272 277 281 281 286 288 287 283 281 281 279 281 282 286 286 288 287 287 287 288 287 287 287 287 282 288 291 291 289 295 299 295 296 297 292 292
267 271 275 277 282 285 286 288 288 285 281 278 279 283 284 287 290 291 290 288 288 289 291 293 294 290 287 283 280 291 300 300 297 295 299 298 298 298
265 272 276 275 274 282 284 285 287 284 282 279 281 285 290 290 292 293 291 290 288 287 289 293 295 292 287 282 285 292 298 300 300 296 292 291 289 283
269 270 265 263 264 265 269 272 280 281 284 280 283 285 288 290 292 292 291 291 291 291 292 295 297 296 293 291 289 293 300 305 309 307 302 297 294 291
Height
1515 1515 1516 1517 1517 1519 1519 1520 1521 1519 1520 1521 1521 1522 1520 1521 1519 1518 1518 1516 1514 1512 1512 1510 1509 1510 1510 1511 1511 1512 1513 1514 1517 1520 1522 1525 1527 1528
1510 1510 1511 1513 1513 1513 1513 1514 1516 1515 1517 1518 1518 1517 1516 1515 1515 1514 1514 1512 1510 1509 1508 1507 1506 1506 1506 1507 1508 1509 1510 1512 1514 1516 1518 1519 1520 1521
1506 1506 1507 1507 1509 1511 1510 1509 1511 1513 1513 1514 1513 1512 1510 1510 1511 1510 1509 1507 1506 1507 1506 1506 1505 1504 1505 1506 1506 1508 1509 1510 1511 1513 1515 1517 1518 1519
1503 1502 1502 1502 1503 1504 1504 1505 1505 1506 1508 1508 1509 1507 1507 1505 1506 1506 1504 1504 1504 1505 1504 1504 1504 1503 1504 1505 1506 1506 1507 1508 1509 1509 1510 1511 1512 1513
1499 1499 1498 1499 1499 1499 1500 1500 1502 1501 1503 1503 1504 1504 1502 1501 1502 1502 1501 1501 1501 1502 1503 1502 1502 1501 1501 1502 1503 1503 1504 1505 1505 1506 1507 1508 1508 1508
1496 1496 1495 1495 1496 1497 1497 1496 1497 1497 1499 1499 1498 1499 1498 1497 1498 1498 1498 1498 1498 1499 1499 1499 1498 1498 1498 1498 1498 1499 1500 1500 1500 1501 1501 1502 1503 1503
1492 1495 1494 1493 1493 1492 1493 1492 1494 1495 1495 1496 1494 1495 1494 1494 1494 1494 1495 1496 1493 1494 1495 1495 1495 1494 1494 1494 1494 1494 1494 1494 1494 1495 1495 1495 1496 1496
1487 1489 1491 1493 1492 1490 1489 1489 1490 1490 1495 1492 1492 1491 1491 1492 1490 1491 1492 1493 1490 1491 1491 1492 1491 1491 1490 1490 1490 1489 1489 1489 1489 1490 1490 1490 1491 1491
1484 1487 1488 1491 1490 1490 1489 1488 1486 1487 1490 1490 1490 1489 1488 1489 1489 1489 1490 1490 1488 1487 1487 1488 1488 1487 1487 1487 1486 1486 1485 1485 1485 1485 1485 1485 1485 1486
1481 1482 1487 1488 1486 1486 1488 1486 1484 1485 1487 1488 1487 1487 1487 1486 1486 1486 1487 1486 1485 1484 1484 1485 1485 1485 1485 1484 1484 1484 1483 1483 1483 1482 1482 1482 1481 1482
1480 1482 1485 1484 1484 1483 1485 1485 1481 1483 1484 1485 1485 1484 1484 1484 1484 1484 1484 1484 1482 1481 1482 1482 1482 1482 1482 1482 1482 1482 1482 1482 1481 1480 1480 1479 1479 1478
1480 1481 1481 1481 1481 1482 1482 1481 1480 1481 1482 1482 1483 1481 1481 1482 1481 1482 1483 1482 1481 1481 1481 1481 1480 1480 1480 1479 1480 1480 1480 1479 1478 1477 1477 1476 1476 1475
1478 1479 1479 1479 1479 1480 1479 1479 1478 1479 1480 1480 1479 1478 1479 1480 1479 1479 1480 1480 1479 1479 1479 1479 1478 1478 1478 1477 1477 1477 1476 1476 1475 1474 1473 1473 1472 1471
1476 1476 1477 1477 1478 1477 1477 1476 1476 1476 1477 1477 1476 1476 1477 1477 1477 1477 1478 1477 1477 1477 1477 1477 1476 1475 1474 1473 1473 1473 1473 1472 1470 1469 1469 1468 1467 1467
1474 1474 1474 1474 1474 1474 1475 1474 1473 1474 1474 1473 1473 1474 1474 1475 1474 1474 1475 1474 1474 1474 1474 1473 1473 1472 1471 1470 1469 1467 1467 1467 1465 1465 1465 1464 1463 1462
1471 1471 1471 1471 1471 1472 1472 1471 1471 1471 1470 1470 1471 1471 1471 1472 1471 1471 1471 1471 1471 1471 1470 1470 1469 1468 1467 1466 1465 1463 1463 1461 1461 1460 1457 1456 1456 1455
1468 1468 1468 1468 1468 1469 1469 1468 1468 1467 1466 1467 1467 1467 1468 1468 1467 1467 1466 1467 1466 1466 1465 1464 1463 1463 1463 1462 1459 1458 1457 1455 1455 1453 1450 1448 1448 1448
1463 1464 1464 1464 1465 1465 1465 1464 1463 1463 1463 1463 1463 1463 1464 1463 1462 1462 1462 1462 1461 1461 1460 1460 1458 1457 1456 1455 1454 1452 1450 1449 1449 1447 1445 1441 1440 1441
1458 1459 1460 1460 1460 1460 1461 1460 1460 1460 1460 1459 1459 1459 1459 1459 1458 1457 1457 1457 1456 1455 1455 1454 1453 1453 1451 1447 1449 1448 1443 1443 1441 1439 1438 1437 1433 1432
1452 1454 1455 1456 1456 1456 1456 1456 1456 1456 1455 1455 1455 1455 1455 1454 1452 1452 1452 1451 1450 1450 1448 1448 1448 1447 1445 1442 1439 1438 1440 1437 1435 1431 1428 1427 1424 1423
1448 1449 1450 1451 1451 1451 1451 1451 1451 1451 1451 1450 1450 1450 1450 1448 1447 1447 1446 1445 1444 1443 1442 1441 1441 1440 1438 1436 1431 1428 1429 1430 1428 1424 1421 1418 1414 1413
1442 1443 1444 1445 1446 1446 1446 1446 1446 1446 1445 1445 1445 1445 1444 1443 1442 1441 1440 1439 1438 1437 1435 1435 1434 1432 1430 1428 1424 1421 1420 1421 1420 1418 1417 1414 1410 1404
1435 1435 1436 1437 1438 1439 1439 1439 1440 1439 1440 1440 1440 1440 1439 1438 1436 1435 1433 1432 1431 1430 1429 1427 1426 1425 1423 1421 1418 1415 1413 1412 1410 1407 1406 1406 1402 1399